Location: Goll?ig?dem
(16.6773°N, 80.7332°E)
Time: 05:33:54
(UTC+00:00)

Envisat - Pass Details

Date: 27 September 2021
Orbit: 764 x 766 km, 98.2° (Epoch: 23 October)

Event Time Altitude Azimuth Distance (km) Brightness Sun altitude
Rises 22:53:01 0° 28° (NNE) 3,221 6.7 -23.3°
Reaches altitude 10° 22:55:34 10° 38° (NE) 2,294 6.0 -22.7°
Maximum altitude 22:59:59 31° 100° (E) 1,320 4.9 -21.6°
Drops below altitude 10° 23:04:25 10° 161° (SSE) 2,291 5.6 -20.5°
Sets 23:06:57 0° 171° (S) 3,215 6.3 -19.9°
